SCP
0 0 0 0 0 0 0 0 0 0 0 0 0 0 0 0 0 0 0 0 0 0 0 0 0 0 0 0 0 0 0 0 0 0 0 0 0 0 0 0 0 0 0
0 0 0 0 0 0 0 0 0 0 0 0 0 0 0 0 0 0 0 0 0 0 0 0 0 0 0 0 0 0 0 0 0 0 0 0 0 0 0 0 0 0 0
0 0 0 0 0 0 0 0 0 0 0 0 0 0 0 0 0 0 0 0 0 0 0 0 0 0 0 0 0 0 0 0 0 0 0 0 0 0 0 0 0 0 0
0 0 0 0 0 0 0 0 0 0 0 0 0 0 0 0 0 0 0 0 0 0 0 0 0 0 0 0 0 0 0 0 0 0 0 0 0 0 0 0 0 0 0
0 0 0 0 0 0 0 0 0 0 0 0 0 0 0 0 0 0 0 0 0 0 0 0 0 0 0 0 0 0 0 0 0 0 0 0 0 0 0 0 0 0 0
0 0 0 0 0 0 0 0 0 0 0 0 0 0 0 0 0 0 0 0 0 0 0 0 0 0 0 0 0 0 0 0 0 0 0 0 0 0 0 0 0 0 0
0 0 0 0 0 0 0 0 0 0 0 0 0 0 0 0 0 0 0 0 0 0 0 0 0 0 0 0 0 0 0 0 0 0 0 0 0 0 0 0 0 0 0
0 0 0 0 0 0 0 0 0 0 0 0 0 0 0 0 0 0 0 0 0 0 0 0 0 0 0 0 0 0 0 0 0 0 0 0 0 0 0 0 0 0 0
0 0 0 0 0 0 0 0 0 0 0 0 0 0 0 0 0 0 0 0 0 0 0 0 0 0 0 0 0 0 0 0 0 0 0 0 0 0 0 0 0 0 0
0 0 0 0 0 0 0 0 0 0 0 0 0 0 0 0 0 0 0 0 0 0 0 0 0 0 0 0 0 0 0 0 0 0 0 0 0 0 0 0 0 0 0
0 0 0 0 0 0 0 0 0 0 0 0 0 0 0 0 0 0 0 0 0 0 0 0 0 0 0 0 0 0 0 0 0 0 0 0 0 0 0 0 0 0 0
0 0 0 0 0 0 0 0 0 0 0 0 0 0 0 0 0 0 0 0 0 0 0 0 0 0 0 0 0 0 0 0 0 0 0 0 0 0 0 0 0 0 0
0 0 0 0 0 0 0 0 0 0 0 0 0 0 0 0 0 0 0 0 0 0 0 0 0 0 0 0 0 0 0 0 0 0 0 0 0 0 0 0 0 0 0
0 0 0 0 0 0 0 0 0 0 0 0 0 0 0 0 0 0 0 0 0 0 0 0 0 0 0 0 0 0 0 0 0 0 0 0 0 0 0 0 0 0 0
0 0 0 0 0 0 0 0 0 0 0 0 0 0 0 0 0 0 0 0 0 0 0 0 0 0 0 0 0 0 0 0 0 0 0 0 0 0 0 0 0 0 0
0 0 0 0 0 0 0 0 0 0 0 0 0 0 0 0 0 0 0 0 0 0 0 0 0 0 0 0 0 0 0 0 0 0 0 0 0 0 0 0 0 0 0
0 0 0 0 0 0 0 0 0 0 0 0 0 0 0 0 0 0 0 0 0 0 0 0 0 0 0 0 0 0 0 0 0 0 0 0 0 0 0 0 0 0 0
0 0 0 0 0 0 0 0 0 0 0 0 0 0 0 0 0 0 0 0 0 0 0 0 0 0 0 0 0 0 0 0 0 0 0 0 0 0 0 0 0 0 0
0 0 0 0 0 0 0 0 0 0 0 0 0 0 0 0 0 0 0 0 0 0 0 0 0 0 0 0 0 0 0 0 0 0 0 0 0 0 0 0 0 0 0
0 0 0 0 0 0 0 0 0 0 0 0 0 0 0 0 0 0 0 0 0 0 0 0 0 0 0 0 0 0 0 0 0 0 0 0 0 0 0 0 0 0 0
0 0 0 0 0 0 0 0 0 0 0 0 0 0 0 0 0 0 0 0 0 0 0 0 0 0 0 0 0 0 0 0 0 0 0 0 0 0 0 0 0 0 0
0 0 0 0 0 0 0 0 0 0 0 0 0 0 0 0 0 0 0 0 0 0 0 0 0 0 0 0 0 0 0 0 0 0 0 0 0 0 0 0 0 0 0
0 0 0 0 0 0 0 0 0 0 0 0 0 0 0 0 0 0 0 0 0 0 0 0 0 0 0 0 0 0 0 0 0 0 0 0 0 0 0 0 0 0 0
0 0 0 0 0 0 0 0 0 0 0 0 0 0 0 0 0 0 0 0 0 0 0 0 0 0 0 0 0 0 0 0 0 0 0 0 0 0 0 0 0 0 0
0 0 0 0 0 0 0 0 0 0 0 0 0 0 0 0 0 0 0 0 0 0 0 0 0 0 0 0 0 0 0 0 0 0 0 0 0 0 0 0 0 0 0
0 0 0 0 0 0 0 0 0 0 0 0 0 0 0 0 0 0 0 0 0 0 0 0 0 0 0 0 0 0 0 0 0 0 0 0 0 0 0 0 0 0 0
Wind_Speed
4 4 4 4 4 3 3 4 4 3 3 3 3 2 2 2 2 1 1 1 1 1 1 1 2 1 1 1 1 1 1 2 4 4 2 2 3 4 5 4 4 4 5
4 4 4 4 4 4 4 4 4 4 4 4 3 3 3 3 2 2 2 2 2 2 2 1 2 1 2 1 1 2 2 2 3 5 3 3 3 4 4 4 5 5 4
3 4 4 4 4 5 5 5 4 4 4 3 3 4 4 3 3 3 3 3 3 3 3 2 3 2 2 2 2 2 2 2 2 3 4 2 2 3 4 4 4 4 5
3 4 5 5 5 5 5 5 4 4 4 4 4 4 4 4 4 4 4 3 3 3 3 3 3 3 3 3 2 2 2 2 2 3 3 3 3 2 2 3 5 4 5
3 4 5 4 4 4 4 4 4 4 5 4 4 4 4 4 4 4 4 4 4 3 3 3 3 4 5 4 3 2 2 2 2 3 3 3 3 3 3 3 5 6 4
3 5 4 3 3 4 4 4 4 4 4 4 4 4 5 5 7 9 6 4 4 4 4 3 4 4 6 7 7 5 3 3 3 2 2 3 4 3 3 4 4 5 4
4 4 4 3 4 4 4 3 4 4 4 4 4 4 5 7 10 10 10 5 5 5 4 4 3 3 5 3 4 5 4 5 4 3 3 3 3 3 3 4 4 4 5
3 4 4 3 4 3 3 4 4 3 4 4 5 5 5 7 10 10 10 5 4 5 5 5 4 4 4 4 3 2 2 2 3 2 2 3 3 3 2 3 4 5 5
4 4 4 4 4 4 4 5 4 3 4 4 4 5 5 7 10 10 9 3 3 4 4 4 5 4 8 8 4 3 3 2 3 4 4 3 4 5 3 2 3 4 4
5 5 4 4 4 5 5 4 3 3 4 4 4 4 5 6 8 10 9 3 4 4 3 4 7 7 8 8 4 4 4 3 2 2 2 3 3 3 4 1 2 2 3
4 4 4 4 4 5 4 3 3 3 3 3 4 4 4 6 8 10 10 4 5 4 4 3 4 9 9 9 6 4 5 3 2 2 1 2 1 1 1 1 1 2 3
4 4 4 4 3 3 3 3 3 3 3 4 3 4 4 5 6 8 11 10 7 5 4 4 4 8 9 8 6 5 6 4 1 1 1 2 2 2 2 2 3 3 4
3 4 4 3 3 3 3 3 2 3 3 3 3 4 4 3 5 10 10 10 10 5 4 6 7 8 7 5 6 6 4 2 1 2 2 2 2 2 2 2 3 3 4
4 4 3 3 3 3 3 3 3 3 4 4 4 5 4 3 3 4 4 5 7 6 4 5 7 7 5 4 4 3 2 2 2 2 2 2 1 1 2 2 2 3 3
4 4 4 3 3 3 3 4 4 5 6 5 5 4 4 5 6 8 5 4 3 4 3 2 2 2 2 2 2 2 2 2 2 1 2 2 2 2 2 2 2 2 3
4 4 3 3 3 3 3 4 7 8 10 11 10 8 7 9 9 10 10 10 10 9 5 3 4 4 4 4 3 3 3 3 2 2 2 2 2 2 2 2 2 2 4
5 4 3 3 3 3 3 4 5 5 8 10 11 11 11 10 10 10 10 10 10 9 5 4 4 4 4 4 3 3 3 3 3 3 3 2 2 2 2 2 3 3 4
5 5 5 4 4 4 4 4 4 4 5 4 6 10 11 11 10 10 10 7 5 6 4 4 4 4 4 4 4 4 3 3 3 3 3 2 3 2 2 3 3 4 4
4 4 4 4 4 4 4 4 4 5 5 5 4 5 8 9 9 9 8 5 5 5 4 4 4 4 4 4 4 4 4 3 3 3 3 3 3 3 3 3 3 6 5
4 7 6 4 4 4 4 4 4 5 5 5 5 4 3 3 4 4 4 4 5 5 5 5 4 4 4 4 4 4 4 4 4 3 3 3 3 3 4 4 4 4 4
4 5 7 4 4 4 4 5 5 5 5 6 6 6 8 5 5 5 5 5 5 5 5 4 4 4 4 4 4 4 5 4 4 4 3 3 3 3 3 3 4 4 4
4 4 4 4 4 4 5 5 5 5 6 7 5 6 10 6 4 5 5 5 5 4 4 4 4 4 4 4 5 5 5 4 4 4 4 3 3 3 3 3 3 3 4
4 4 4 4 4 7 6 5 5 5 6 6 6 5 5 5 5 5 5 4 4 4 4 4 4 3 3 3 4 5 5 5 5 4 4 4 3 3 3 3 4 4 4
4 5 5 5 5 5 5 5 5 6 6 6 6 6 5 5 5 5 5 4 4 4 3 4 4 5 6 4 3 4 4 4 4 4 5 4 4 3 3 3 4 5 5
5 5 5 5 5 5 5 6 6 6 6 6 6 6 5 5 5 4 4 4 4 4 4 4 4 4 6 6 5 4 6 8 6 4 4 4 4 4 3 4 4 4 4
5 6 5 5 5 5 6 6 6 6 6 6 5 5 5 5 4 4 4 4 4 4 4 4 5 5 6 5 6 7 8 9 8 7 4 3 3 3 3 3 4 4 4
Wind_Direction
236 233 237 239 233 228 230 238 240 243 236 236 235 236 243 252 253 233 246 245 239 270 272 248 270 282 290 302 296 279 264 248 265 284 288 311 314 322 327 329 328 332 330
239 235 237 240 235 234 238 239 235 237 232 229 228 229 233 237 232 224 236 236 231 241 250 251 266 270 280 284 285 284 277 264 261 283 297 307 304 310 315 320 331 334 323
241 239 244 242 236 239 241 240 232 231 233 228 222 226 229 229 225 223 222 229 228 231 232 234 248 240 259 264 265 271 275 279 264 272 291 298 300 314 320 319 322 320 324
241 240 246 246 241 242 242 237 231 225 225 226 226 229 229 228 226 223 217 222 226 232 231 232 236 230 242 248 255 261 269 275 277 276 286 298 299 306 316 322 326 328 321
244 246 250 253 248 246 243 240 236 231 231 227 227 234 233 228 226 220 218 219 219 229 235 238 240 240 246 244 244 247 253 260 270 278 287 298 305 321 324 319 315 319 308
248 254 260 259 255 248 245 241 239 238 235 227 227 231 236 239 242 237 227 218 218 222 233 241 249 255 261 263 265 264 257 256 259 266 279 290 296 297 302 313 317 326 314
256 263 261 255 255 252 246 239 240 239 231 233 234 231 239 246 248 248 240 222 214 220 223 230 242 245 252 252 267 276 284 288 278 259 261 274 282 284 295 301 302 301 289
263 267 263 255 254 255 246 243 243 236 233 238 240 236 241 252 252 250 246 229 217 220 219 218 226 242 244 233 225 241 256 274 279 271 238 251 262 273 264 282 291 296 284
269 267 262 252 252 251 248 249 243 236 240 238 241 237 240 256 255 249 244 215 224 229 225 221 223 231 248 247 229 231 248 266 283 277 280 290 304 316 329 334 320 318 309
265 264 260 249 244 245 247 249 243 235 241 242 245 240 240 249 254 250 241 211 222 230 228 228 237 237 244 247 226 216 241 250 250 287 301 315 326 325 336 338 303 299 303
270 268 263 253 248 248 250 246 245 241 243 244 251 252 246 249 257 254 246 217 215 222 226 226 233 244 247 247 239 217 239 246 219 234 263 283 294 295 298 290 271 260 270
273 270 267 263 258 253 246 252 244 235 241 248 254 266 254 253 254 256 253 241 226 217 226 221 224 239 245 248 246 237 249 257 189 219 258 275 283 287 285 285 280 268 258
277 273 272 272 264 252 240 247 251 234 236 246 243 256 262 248 252 256 255 251 243 226 222 226 230 237 238 245 248 246 243 206 194 231 254 264 263 267 282 293 293 287 283
269 273 272 269 272 262 245 236 235 234 238 243 244 251 259 254 243 245 245 248 249 240 225 232 237 236 225 224 240 247 212 191 201 226 247 256 265 271 283 294 302 314 309
264 266 266 259 259 260 251 239 237 233 228 237 241 239 245 256 247 241 234 228 219 220 198 187 196 198 203 200 201 210 206 210 228 220 227 246 262 275 287 299 295 303 296
261 261 255 254 255 255 264 275 254 250 259 255 252 247 249 252 263 255 247 243 238 231 217 204 210 211 215 214 215 217 212 216 219 218 224 232 248 264 284 294 287 285 290
246 253 251 247 247 248 251 260 280 280 262 260 257 257 256 259 260 256 251 243 237 228 222 213 214 214 215 213 214 215 218 214 205 212 222 227 235 249 264 280 285 286 288
248 250 247 243 240 241 242 245 252 267 282 277 263 260 262 261 259 255 250 242 234 224 216 216 217 215 212 214 215 216 216 208 205 214 218 221 222 234 252 265 271 277 286
248 246 243 243 242 243 245 246 249 254 262 271 279 272 263 263 259 254 244 226 225 226 220 218 215 211 210 211 212 211 208 208 209 209 215 218 220 225 245 255 264 280 287
248 252 253 249 249 248 245 244 247 251 257 261 261 262 259 250 246 244 232 222 225 227 221 218 215 210 208 207 205 203 205 209 209 213 216 219 220 224 241 253 261 272 277
247 254 256 255 247 245 244 244 246 250 255 259 258 255 253 247 242 238 233 227 226 225 218 214 211 209 206 201 199 202 206 211 210 211 213 216 218 229 239 249 259 266 277
238 243 244 246 248 245 246 242 244 249 252 257 261 258 255 251 243 240 236 232 226 218 210 208 209 207 202 198 197 200 207 212 212 210 211 213 217 229 239 249 261 270 277
234 241 247 248 247 256 259 247 244 248 252 253 254 252 246 243 242 238 235 228 217 211 205 203 205 207 201 197 194 196 206 212 209 203 204 210 216 225 234 249 260 273 278
231 236 242 249 249 249 252 253 250 250 251 253 251 249 246 243 241 237 230 219 211 209 202 200 203 205 202 199 199 201 205 206 199 200 200 206 216 226 236 250 260 267 275
232 236 241 247 251 252 254 254 254 253 254 253 251 250 248 244 241 237 227 216 210 209 206 201 201 202 205 205 202 203 213 215 209 197 196 203 212 221 236 250 260 271 278
240 240 243 245 247 250 252 254 255 253 253 253 251 247 244 240 238 233 223 215 211 209 207 204 202 203 202 204 208 212 218 219 214 209 201 199 209 225 235 250 258 268 279